TimeCST,TemperatureF,Dew PointF,Humidity,Sea Level PressureIn,VisibilityMPH,Wind Direction,Wind SpeedMPH,Gust SpeedMPH,PrecipitationIn,Events,Conditions,WindDirDegrees,DateUTC
12:15 AM,42.8,41.0,93,30.22,10.0,Calm,Calm,-,N/A,,Clear,0,2013-11-12 06:15:00
12:35 AM,42.8,41.0,93,30.21,10.0,Calm,Calm,-,N/A,,Clear,0,2013-11-12 06:35:00
12:55 AM,42.8,41.0,93,30.21,10.0,Calm,Calm,-,N/A,,Clear,0,2013-11-12 06:55:00
1:15 AM,41.0,41.0,100,30.21,10.0,Calm,Calm,-,N/A,,Clear,0,2013-11-12 07:15:00
1:35 AM,41.0,41.0,100,30.21,10.0,Calm,Calm,-,N/A,,Scattered Clouds,0,2013-11-12 07:35:00
1:55 AM,42.8,41.0,93,30.21,10.0,Calm,Calm,-,N/A,,Mostly Cloudy,0,2013-11-12 07:55:00
2:15 AM,42.8,42.8,100,30.21,10.0,Calm,Calm,-,N/A,,Mostly Cloudy,0,2013-11-12 08:15:00
2:35 AM,42.8,41.0,93,30.22,10.0,Calm,Calm,-,N/A,,Clear,0,2013-11-12 08:35:00
2:55 AM,41.0,41.0,100,30.22,10.0,Calm,Calm,-,N/A,,Clear,0,2013-11-12 08:55:00
3:15 AM,41.0,41.0,100,30.22,10.0,Calm,Calm,-,N/A,,Clear,0,2013-11-12 09:15:00
3:35 AM,41.0,41.0,100,30.22,10.0,Calm,Calm,-,N/A,,Clear,0,2013-11-12 09:35:00
3:55 AM,41.0,41.0,100,30.22,10.0,Calm,Calm,-,N/A,,Clear,0,2013-11-12 09:55:00
4:15 AM,41.0,39.2,93,30.22,10.0,Calm,Calm,-,N/A,,Clear,0,2013-11-12 10:15:00
4:35 AM,41.0,39.2,93,30.23,10.0,Calm,Calm,-,N/A,,Clear,0,2013-11-12 10:35:00
4:55 AM,41.0,39.2,93,30.23,7.0,Calm,Calm,-,N/A,,Clear,0,2013-11-12 10:55:00
5:15 AM,41.0,39.2,93,30.24,10.0,Calm,Calm,-,N/A,,Clear,0,2013-11-12 11:15:00
5:35 AM,41.0,41.0,100,30.25,10.0,Calm,Calm,-,N/A,,Clear,0,2013-11-12 11:35:00
5:55 AM,46.4,44.6,93,30.26,10.0,NNW,5.8,-,N/A,,Clear,340,2013-11-12 11:55:00
6:15 AM,46.4,44.6,93,30.27,10.0,NNW,3.5,-,N/A,,Clear,340,2013-11-12 12:15:00
6:35 AM,44.6,42.8,93,30.28,10.0,NNW,3.5,-,N/A,,Scattered Clouds,340,2013-11-12 12:35:00
6:55 AM,46.4,44.6,93,30.30,10.0,NNW,4.6,-,N/A,,Mostly Cloudy,340,2013-11-12 12:55:00
7:15 AM,46.4,44.6,93,30.31,10.0,NNW,3.5,-,N/A,,Mostly Cloudy,340,2013-11-12 13:15:00
7:35 AM,48.2,44.6,87,30.32,10.0,NNW,5.8,-,N/A,,Mostly Cloudy,340,2013-11-12 13:35:00
7:55 AM,50.0,46.4,87,30.33,10.0,NNW,5.8,-,N/A,,Overcast,330,2013-11-12 13:55:00
8:15 AM,51.8,46.4,82,30.35,10.0,North,5.8,18.4,N/A,,Overcast,360,2013-11-12 14:15:00
8:35 AM,51.8,44.6,76,30.36,10.0,North,11.5,19.6,N/A,,Overcast,360,2013-11-12 14:35:00
8:55 AM,50.0,42.8,76,30.38,10.0,North,10.4,20.7,N/A,,Overcast,360,2013-11-12 14:55:00
9:15 AM,50.0,41.0,71,30.39,10.0,North,12.7,23.0,N/A,,Overcast,350,2013-11-12 15:15:00
9:35 AM,48.2,41.0,76,30.41,10.0,North,11.5,18.4,N/A,,Overcast,360,2013-11-12 15:35:00
9:55 AM,46.4,37.4,71,30.43,10.0,North,9.2,25.3,N/A,,Overcast,350,2013-11-12 15:55:00
10:15 AM,46.4,37.4,71,30.43,10.0,North,11.5,20.7,N/A,,Overcast,10,2013-11-12 16:15:00
10:35 AM,46.4,37.4,71,30.44,10.0,North,11.5,23.0,N/A,,Overcast,10,2013-11-12 16:35:00
10:55 AM,46.4,37.4,71,30.44,10.0,North,13.8,24.2,N/A,,Overcast,360,2013-11-12 16:55:00
11:15 AM,46.4,35.6,66,30.45,10.0,North,15.0,26.5,N/A,,Overcast,360,2013-11-12 17:15:00
11:35 AM,46.4,35.6,66,30.45,10.0,North,13.8,21.9,N/A,,Overcast,360,2013-11-12 17:35:00
11:55 AM,46.4,35.6,66,30.45,10.0,North,15.0,25.3,N/A,,Overcast,360,2013-11-12 17:55:00
12:15 PM,44.6,35.6,71,30.45,10.0,North,12.7,21.9,N/A,,Overcast,10,2013-11-12 18:15:00
12:35 PM,46.4,33.8,62,30.45,10.0,North,13.8,21.9,N/A,,Overcast,10,2013-11-12 18:35:00
12:55 PM,44.6,33.8,66,30.45,10.0,North,8.1,21.9,N/A,,Overcast,350,2013-11-12 18:55:00
1:15 PM,44.6,33.8,66,30.45,10.0,North,13.8,20.7,N/A,,Overcast,360,2013-11-12 19:15:00
1:35 PM,46.4,32.0,57,30.45,10.0,NNE,13.8,23.0,N/A,,Scattered Clouds,20,2013-11-12 19:35:00
1:55 PM,46.4,32.0,57,30.45,10.0,North,11.5,21.9,N/A,,Clear,350,2013-11-12 19:55:00
2:15 PM,46.4,30.2,53,30.45,10.0,North,13.8,21.9,N/A,,Clear,10,2013-11-12 20:15:00
2:35 PM,48.2,30.2,50,30.44,10.0,NNE,17.3,23.0,N/A,,Clear,20,2013-11-12 20:35:00
2:55 PM,46.4,28.4,50,30.45,10.0,North,10.4,23.0,N/A,,Clear,360,2013-11-12 20:55:00
3:15 PM,46.4,28.4,50,30.45,10.0,North,13.8,20.7,N/A,,Clear,10,2013-11-12 21:15:00
3:35 PM,46.4,28.4,50,30.45,10.0,North,16.1,23.0,N/A,,Clear,10,2013-11-12 21:35:00
3:55 PM,46.4,26.6,46,30.46,10.0,North,12.7,18.4,N/A,,Clear,10,2013-11-12 21:55:00
4:15 PM,44.6,26.6,49,30.47,10.0,North,12.7,20.7,N/A,,Clear,10,2013-11-12 22:15:00
4:35 PM,44.6,28.4,53,30.49,10.0,North,8.1,21.9,N/A,,Clear,360,2013-11-12 22:35:00
4:55 PM,42.8,26.6,53,30.49,10.0,North,6.9,17.3,N/A,,Clear,350,2013-11-12 22:55:00
5:15 PM,42.8,26.6,53,30.50,10.0,North,8.1,16.1,N/A,,Clear,360,2013-11-12 23:15:00
5:35 PM,41.0,26.6,57,30.50,10.0,North,4.6,-,N/A,,Clear,350,2013-11-12 23:35:00
5:55 PM,41.0,26.6,57,30.51,10.0,North,5.8,-,N/A,,Clear,350,2013-11-12 23:55:00
6:15 PM,41.0,26.6,57,30.51,10.0,North,5.8,-,N/A,,Clear,360,2013-11-13 00:15:00
6:35 PM,39.2,26.6,61,30.52,10.0,North,8.1,-,N/A,,Clear,350,2013-11-13 00:35:00
6:55 PM,39.2,26.6,61,30.53,10.0,North,4.6,-,N/A,,Clear,350,2013-11-13 00:55:00
7:15 PM,37.4,26.6,65,30.54,10.0,North,4.6,-,N/A,,Clear,350,2013-11-13 01:15:00
7:35 PM,37.4,24.8,60,30.55,10.0,North,4.6,-,N/A,,Clear,360,2013-11-13 01:35:00
7:55 PM,37.4,23.0,56,30.55,10.0,North,5.8,-,N/A,,Clear,350,2013-11-13 01:55:00
8:15 PM,37.4,23.0,56,30.56,10.0,North,5.8,-,N/A,,Clear,350,2013-11-13 02:15:00
8:35 PM,37.4,23.0,56,30.57,10.0,North,4.6,-,N/A,,Clear,360,2013-11-13 02:35:00
8:55 PM,35.6,23.0,60,30.57,10.0,North,6.9,-,N/A,,Clear,360,2013-11-13 02:55:00
9:15 PM,35.6,23.0,60,30.57,10.0,North,4.6,-,N/A,,Clear,360,2013-11-13 03:15:00
9:35 PM,35.6,23.0,60,30.57,10.0,Calm,Calm,-,N/A,,Clear,0,2013-11-13 03:35:00
9:55 PM,33.8,23.0,65,30.58,10.0,North,3.5,-,N/A,,Clear,360,2013-11-13 03:55:00
10:15 PM,33.8,23.0,65,30.58,10.0,North,3.5,-,N/A,,Clear,360,2013-11-13 04:15:00
10:35 PM,33.8,23.0,65,30.59,10.0,North,3.5,-,N/A,,Clear,360,2013-11-13 04:35:00
10:55 PM,33.8,23.0,65,30.58,10.0,North,3.5,-,N/A,,Clear,350,2013-11-13 04:55:00
11:15 PM,32.0,23.0,69,30.58,10.0,Calm,Calm,-,N/A,,Clear,0,2013-11-13 05:15:00
11:35 PM,32.0,23.0,69,30.58,10.0,Calm,Calm,-,N/A,,Clear,0,2013-11-13 05:35:00
11:55 PM,32.0,23.0,69,30.58,10.0,NNW,4.6,-,N/A,,Clear,340,2013-11-13 05:55:00